WetterOnline ( https://www.wetteronline.de )

Wetter aktuell Mittelndorf

Aktuelles Wetter: Lichtenhain/Mittelndorf (352m)

6-stündlich | Neueste Meldungen
Ortszeit Temperatur Wetter
Fr, 24.05. 20:00 18.6° C bedeckt
Fr, 24.05. 14:00 19.2° C leicht bewölkt
Fr, 24.05. 8:00 10.9° C wolkig
Fr, 24.05. 2:00 7.0° C leicht bewölkt
Do, 23.05. 20:00 13.8° C wolkig
Do, 23.05. 14:00 16.0° C leicht bewölkt
Do, 23.05. 8:00 8.8° C bedeckt
Do, 23.05. 2:00 9.3° C leichter Regen
Ortszeit Temperatur Wetter
Sa, 25.05. 0:30 12.8° C bewölkt
Sa, 25.05. 0:20 12.8° C bewölkt
Sa, 25.05. 0:10 13.5° C bewölkt
Sa, 25.05. 0:00 13.9° C bedeckt
Fr, 24.05. 23:50 13.9° C bedeckt
Fr, 24.05. 23:40 14.5° C bedeckt
Fr, 24.05. 23:30 13.8° C bedeckt
Fr, 24.05. 23:00 15.0° C bedeckt
Fr, 24.05. 22:30 15.8° C bedeckt
Fr, 24.05. 22:00 16.3° C bewölkt
Fr, 24.05. 21:30 17.1° C bedeckt
Ortszeit Relative Feuchte Sichtweite
Fr, 24.05. 20:00 52% 35 km
Fr, 24.05. 14:00 44% 35 km
Fr, 24.05. 8:00 74% 50 km
Fr, 24.05. 2:00 82% 50 km
Do, 23.05. 20:00 49% 70 km
Do, 23.05. 14:00 45% 22 km
Do, 23.05. 8:00 90% 17 km
Do, 23.05. 2:00 94% 7 km
Ortszeit Relative Feuchte Sichtweite
Sa, 25.05. 0:30 78% 21 km
Sa, 25.05. 0:20 78% -
Sa, 25.05. 0:10 73% -
Sa, 25.05. 0:00 72% 26 km
Fr, 24.05. 23:50 72% -
Fr, 24.05. 23:40 70% -
Fr, 24.05. 23:30 74% 21 km
Fr, 24.05. 23:00 67% 30 km
Fr, 24.05. 22:30 64% 30 km
Fr, 24.05. 22:00 60% 30 km
Fr, 24.05. 21:30 54% 30 km
Ortszeit Niederschlagsmenge Niederschlagsart
Fr, 24.05. 20:00 0.0 l/m2 in 12 Std. -
Fr, 24.05. 14:00 0.0 l/m2 in 6 Std. -
Fr, 24.05. 8:00 0.0 l/m2 in 12 Std. -
Fr, 24.05. 2:00 0.0 l/m2 in 6 Std. -
Do, 23.05. 20:00 0.0 l/m2 in 12 Std. -
Do, 23.05. 14:00 0.0 l/m2 in 6 Std. -
Do, 23.05. 8:00 6 l/m2 in 12 Std. Regen
Do, 23.05. 2:00 6 l/m2 in 6 Std. Regen
Ortszeit Niederschlagsmenge Niederschlagsart
Sa, 25.05. 0:30 0.0 l/m2 in 1 Std. -
Sa, 25.05. 0:20 keine Meldung -
Sa, 25.05. 0:10 keine Meldung -
Sa, 25.05. 0:00 0.0 l/m2 in 1 Std. -
Fr, 24.05. 23:50 keine Meldung -
Fr, 24.05. 23:40 keine Meldung -
Fr, 24.05. 23:30 0.0 l/m2 in 1 Std. -
Fr, 24.05. 23:00 0.0 l/m2 in 1 Std. -
Fr, 24.05. 22:30 0.0 l/m2 in 1 Std. -
Fr, 24.05. 22:00 0.0 l/m2 in 1 Std. -
Fr, 24.05. 21:30 0.0 l/m2 in 1 Std. -
Ortszeit Stärke Spitze Richtung
km/h Bft. km/h Grad Sektor
Fr, 24.05. 20:00 9 2 30 320° NW
Fr, 24.05. 14:00 11 2 29 280° W
Fr, 24.05. 8:00 4 1 7 110° O
Fr, 24.05. 2:00 4 1 18 120° SO
Do, 23.05. 20:00 13 3 37 320° NW
Do, 23.05. 14:00 22 4 40 310° NW
Do, 23.05. 8:00 18 3 29 310° NW
Do, 23.05. 2:00 17 3 44 280° W
Ortszeit Stärke Spitze Richtung
km/h Bft. km/h Grad Sektor
Sa, 25.05. 0:30 0 0 4 - -
Sa, 25.05. 0:20 0 0 - 40° NO
Sa, 25.05. 0:10 0 0 - 90° O
Sa, 25.05. 0:00 2 1 4 40° NO
Fr, 24.05. 23:50 2 1 - 40° NO
Fr, 24.05. 23:40 2 1 - 40° NO
Fr, 24.05. 23:30 0 0 4 - -
Fr, 24.05. 23:00 4 1 7 150° SO
Fr, 24.05. 22:30 4 1 7 150° SO
Fr, 24.05. 22:00 4 1 11 240° SW
Fr, 24.05. 21:30 4 1 11 290° W
Ortszeit Untergrenze Bedeckung Gattung
total tief tief mittel hoch
Fr, 24.05. 20:00 3900 m 8/8 8/8 - - -
Fr, 24.05. 14:00 1500 m 5/8 3/8 - - -
Fr, 24.05. 8:00 6300 m 8/8 8/8 - - -
Fr, 24.05. 2:00 6900 m 1/8 5/8 - - -
Do, 23.05. 20:00 7500 m 8/8 0/8 - - -
Do, 23.05. 14:00 5400 m 6/8 1/8 - - -
Do, 23.05. 8:00 2400 m 8/8 8/8 - - -
Do, 23.05. 2:00 30 m 8/8 8/8 - - -
Ortszeit Bedeckungsgrad in Achtel und Wolkenuntergrenze
Sa, 25.05. 0:30 4(4500m) 8(9000m) 8(9000m)
Sa, 25.05. 0:20 4(4500m) 8(9000m) 8(9000m)
Sa, 25.05. 0:10 4(4500m) 8(9000m) 8(9000m)
Sa, 25.05. 0:00 6(4500m) 8(6300m) 8(10500m)
Fr, 24.05. 23:50 6(4500m) 8(6300m) 8(10500m)
Fr, 24.05. 23:40 7(5100m) 8(6300m) 8(10500m)
Fr, 24.05. 23:30 8(5100m) 8(10500m) 8(10500m)
Fr, 24.05. 23:00 8(4200m) 8(10500m) 8(10500m)
Fr, 24.05. 22:30 7(4500m) 8(6900m) 8(8400m)
Fr, 24.05. 22:00 3(4200m) 7(6900m) 8(9000m)
Fr, 24.05. 21:30 8(3900m) 8(5400m) 8(6600m)
Ortszeit Luftdruck NN (hPa) Tendenz (hPa in 3 Std.)
Fr, 24.05. 20:00 1012 - 0,8
Fr, 24.05. 14:00 1014 - 1,2
Fr, 24.05. 8:00 1017 - 0,3
Fr, 24.05. 2:00 1018 - 0,3
Do, 23.05. 20:00 1017 0,0
Do, 23.05. 14:00 1018 - 0,5
Do, 23.05. 8:00 1019 + 0,7
Do, 23.05. 2:00 1018 + 0,6
Ortszeit Luftdruck NN (hPa) Tendenz (hPa in 3 Std.)
Sa, 25.05. 0:30 1014 + 0,4
Sa, 25.05. 0:20 1014 keine Meldung
Sa, 25.05. 0:10 1013 keine Meldung
Sa, 25.05. 0:00 1013 + 0,5
Fr, 24.05. 23:50 1013 keine Meldung
Fr, 24.05. 23:40 1013 keine Meldung
Fr, 24.05. 23:30 1013 + 0,4
Fr, 24.05. 23:00 1013 + 0,3
Fr, 24.05. 22:30 1013 + 0,3
Fr, 24.05. 22:00 1013 + 0,2
Fr, 24.05. 21:30 1013 + 0,1
Ortszeit Schneehöhe (cm)
Fr, 24.05. 20:00 -
Fr, 24.05. 14:00 -
Fr, 24.05. 8:00 -
Fr, 24.05. 2:00 -
Do, 23.05. 20:00 -
Do, 23.05. 14:00 -
Do, 23.05. 8:00 -
Do, 23.05. 2:00 -
Ortszeit Schneehöhe (cm)
Sa, 25.05. 0:30 -
Sa, 25.05. 0:20 -
Sa, 25.05. 0:10 -
Sa, 25.05. 0:00 -
Fr, 24.05. 23:50 -
Fr, 24.05. 23:40 -
Fr, 24.05. 23:30 -
Fr, 24.05. 23:00 -
Fr, 24.05. 22:30 -
Fr, 24.05. 22:00 -
Fr, 24.05. 21:30 -
Link zu dieser Seite / Seite empfehlen

Das Wetter in ...